Location: Amberg
(48.0613°N, 10.6820°E)
Time: 07:42:14
(UTC+00:00)

Cosmos 676 Rocket - Pass Details

Date: 18 November 2025
Orbit: 750 x 779 km, 74.0° (Epoch: 06 December)

Event Time Altitude Azimuth Distance (km) Brightness Sun altitude
Rises 17:57:14 0° 202° (SSW) 3,249 7.6 -23.3°
Reaches altitude 10° 17:59:36 10° 203° (SSW) 2,324 6.8 -23.7°
Maximum altitude 18:04:54 85° 292° (WNW) 786 4.0 -24.6°
Enters shadow 18:06:41 43° 17° (NNE) 1,077 4.5 -24.9°
